Home   Weather   Rothesay   Past weeks
Flag for Canada

Past Weather in Rothesay, New Brunswick, Canada — Yesterday and Last 2 Weeks

Now
32 °F

Overcast.


Feels Like: 20 °F
Forecast: 35 / 28 °F
Wind: 21 mph from North

Location: Saint John

Current Time: Mar 31, 2020 at 11:19:35 am

Latest Report: Mar 31, 2020 at 10:00 am


Visibility: 15 mi

Pressure: 30.04 "Hg

Humidity: 69%

Dew Point: 23 °F

Location of RothesayLocation

Past Weather in Rothesay — Graph

°F

Rothesay Temperature Yesterday

Maximum temperature yesterday: 43 °F (at 3:00 pm)
Minimum temperature yesterday: 28 °F (at 11:00 pm)
Average temperature yesterday: 36 °F

High & Low Weather Summary for the Past Weeks

 TemperatureHumidityPressure
High50 °F (Mar 28, 3:00 pm)100% (Mar 17, 7:00 pm)30.78 "Hg (Mar 17, 7:00 pm)
Low7 °F (Mar 23, 6:00 am)18% (Mar 29, 12:00 pm)29.51 "Hg (Mar 20, 10:00 pm)
Average32 °F70%30.17 "Hg
* Reported Mar 16 10:00 am — Mar 31 10:00 am, Rothesay. Weather by CustomWeather, © 2020

Note: Actual official high and low records may vary slightly from our data, if they occured in-between our weather recording intervals... More about our weather records

Rothesay Weather History for the Previous 24 Hours

Scroll right to see more
 ConditionsComfort  
Time TempWeatherWind HumidityBarometerVisibility
10:00 am
Tue, Mar 31
32 °FOvercast.21 mph69%30.04 "Hg15 mi
9:00 am30 °FOvercast.18 mph80%30.04 "Hg15 mi
8:00 am30 °FOvercast.13 mph80%30.04 "Hg15 mi
7:00 am28 °FOvercast.13 mph86%30.04 "Hg15 mi
6:00 am28 °FOvercast.16 mph80%30.03 "Hg15 mi
5:00 am28 °FOvercast.18 mph80%30.04 "Hg15 mi
4:00 am28 °FOvercast.15 mph74%30.06 "Hg15 mi
3:00 am28 °FOvercast.16 mph74%30.07 "Hg15 mi
2:00 am28 °FOvercast.14 mph80%30.09 "Hg15 mi
1:00 am28 °FMostly cloudy.16 mph80%30.09 "Hg15 mi
12:00 am28 °FMostly cloudy.22 mph74%30.09 "Hg15 mi
11:00 pm
Mon, Mar 30
28 °FMostly cloudy.17 mph80%30.11 "Hg15 mi
10:00 pm30 °FOvercast.21 mph69%30.10 "Hg15 mi
9:00 pm32 °FOvercast.20 mph69%30.10 "Hg15 mi
8:00 pm34 °FOvercast.13 mph60%30.08 "Hg15 mi
7:00 pm37 °FBroken clouds.17 mph56%30.06 "Hg15 mi
6:00 pm41 °FPartly sunny.15 mph49%30.06 "Hg15 mi
5:00 pm43 °FMostly cloudy.20 mph39%30.06 "Hg15 mi
4:00 pm43 °FPartly sunny.17 mph42%30.07 "Hg15 mi
3:00 pm43 °FOvercast.15 mph46%30.09 "Hg15 mi
2:00 pm41 °FMore clouds than sun.15 mph45%30.11 "Hg15 mi
1:00 pm41 °FMostly cloudy.8 mph36%30.13 "Hg15 mi
12:00 pm39 °FMostly cloudy.8 mph39%30.14 "Hg15 mi
11:00 am37 °FMostly cloudy.10 mph35%30.15 "Hg15 mi
Weather by CustomWeather, © 2020

See weather overview

Advertising